TimeCDT,TemperatureF,Dew PointF,Humidity,Sea Level PressureIn,VisibilityMPH,Wind Direction,Wind SpeedMPH,Gust SpeedMPH,PrecipitationIn,Events,Conditions,WindDirDegrees,DateUTC
12:20 AM,68.0,64.4,88,30.13,10.0,North,4.6,-,N/A,,Mostly Cloudy,10,2013-07-31 05:20:00
12:55 AM,69.1,64.9,87,30.10,10.0,North,6.9,-,N/A,,Mostly Cloudy,10,2013-07-31 05:55:00
1:55 AM,66.9,64.0,90,30.09,10.0,Calm,Calm,-,N/A,,Clear,0,2013-07-31 06:55:00
2:55 AM,64.9,63.0,93,30.08,9.0,Calm,Calm,-,N/A,,Clear,0,2013-07-31 07:55:00
3:55 AM,64.0,63.0,96,30.09,4.0,Calm,Calm,-,N/A,,Clear,0,2013-07-31 08:55:00
4:41 AM,62.6,60.8,94,30.14,1.8,Calm,Calm,-,N/A,,Clear,0,2013-07-31 09:41:00
4:51 AM,62.6,62.6,100,30.15,4.0,NNW,8.1,-,N/A,,Clear,330,2013-07-31 09:51:00
4:55 AM,64.0,63.0,96,30.12,5.0,NNW,6.9,-,N/A,,Clear,330,2013-07-31 09:55:00
5:55 AM,63.0,62.1,97,30.10,4.0,WSW,3.5,-,N/A,,Partly Cloudy,240,2013-07-31 10:55:00
6:08 AM,64.4,62.6,94,30.14,4.0,Calm,Calm,-,N/A,,Mostly Cloudy,0,2013-07-31 11:08:00
6:22 AM,64.4,62.6,94,30.13,1.8,SW,4.6,-,N/A,,Overcast,220,2013-07-31 11:22:00
6:24 AM,64.4,62.6,94,30.12,1.2,SSW,6.9,-,N/A,,Overcast,210,2013-07-31 11:24:00
6:31 AM,64.4,62.6,94,30.12,0.2,South,5.8,-,N/A,Fog,Fog,190,2013-07-31 11:31:00
6:55 AM,64.0,63.0,96,30.08,0.2,Calm,Calm,-,N/A,Fog,Fog,0,2013-07-31 11:55:00
7:55 AM,64.9,64.0,97,30.13,0.2,WNW,4.6,-,N/A,Fog,Fog,290,2013-07-31 12:55:00
8:55 AM,66.0,64.9,96,30.13,0.2,Calm,Calm,-,N/A,Fog,Fog,0,2013-07-31 13:55:00
9:55 AM,66.9,66.0,97,30.15,0.8,Calm,Calm,-,N/A,,Overcast,0,2013-07-31 14:55:00
10:12 AM,66.2,66.2,100,30.18,1.2,Calm,Calm,-,N/A,,Overcast,0,2013-07-31 15:12:00
10:16 AM,68.0,66.2,94,30.18,1.8,Calm,Calm,-,N/A,,Overcast,0,2013-07-31 15:16:00
10:24 AM,68.0,66.2,94,30.18,3.0,West,3.5,-,N/A,,Overcast,280,2013-07-31 15:24:00
10:55 AM,72.0,66.9,84,30.14,6.0,Calm,Calm,-,N/A,,Haze,0,2013-07-31 15:55:00
11:05 AM,73.4,68.0,83,30.17,6.0,Calm,Calm,-,N/A,,Haze,0,2013-07-31 16:05:00
11:18 AM,71.6,66.2,83,30.16,8.0,Calm,Calm,-,N/A,,Overcast,0,2013-07-31 16:18:00
11:32 AM,75.2,68.0,78,30.16,9.0,Calm,Calm,-,N/A,,Mostly Cloudy,0,2013-07-31 16:32:00
11:43 AM,75.2,68.0,78,30.16,10.0,Calm,Calm,-,N/A,,Mostly Cloudy,0,2013-07-31 16:43:00
11:50 AM,75.2,66.2,73,30.16,10.0,Calm,Calm,-,N/A,,Mostly Cloudy,0,2013-07-31 16:50:00
11:55 AM,75.0,66.9,76,30.13,10.0,Calm,Calm,-,N/A,,Mostly Cloudy,0,2013-07-31 16:55:00
12:15 PM,78.8,66.2,65,30.16,10.0,Calm,Calm,-,N/A,,Scattered Clouds,0,2013-07-31 17:15:00
12:35 PM,78.8,66.2,65,30.16,10.0,NNW,4.6,-,N/A,,Mostly Cloudy,340,2013-07-31 17:35:00
12:55 PM,79.0,66.0,64,30.12,10.0,Variable,3.5,-,N/A,,Scattered Clouds,0,2013-07-31 17:55:00
1:55 PM,79.0,66.0,64,30.11,10.0,South,3.5,-,N/A,,Partly Cloudy,190,2013-07-31 18:55:00
2:55 PM,82.9,66.0,56,30.10,10.0,Variable,3.5,-,N/A,,Clear,0,2013-07-31 19:55:00
3:55 PM,82.9,66.9,58,30.07,10.0,ENE,5.8,-,N/A,,Clear,70,2013-07-31 20:55:00
4:55 PM,84.0,66.9,56,30.06,10.0,Calm,Calm,-,N/A,,Clear,0,2013-07-31 21:55:00
5:55 PM,82.9,64.9,54,30.05,10.0,East,3.5,-,N/A,,Mostly Cloudy,80,2013-07-31 22:55:00
6:55 PM,84.0,64.0,51,30.06,10.0,Calm,Calm,-,N/A,,Partly Cloudy,0,2013-07-31 23:55:00
7:55 PM,82.0,66.0,58,30.06,10.0,Calm,Calm,-,N/A,,Clear,0,2013-08-01 00:55:00
8:55 PM,78.1,66.0,66,30.06,10.0,Calm,Calm,-,N/A,,Clear,0,2013-08-01 01:55:00
9:55 PM,75.9,66.0,71,30.09,10.0,Calm,Calm,-,N/A,,Clear,0,2013-08-01 02:55:00
10:55 PM,73.0,64.9,76,30.10,10.0,WSW,3.5,-,N/A,,Clear,240,2013-08-01 03:55:00
11:55 PM,70.0,66.0,87,30.08,10.0,Calm,Calm,-,N/A,,Clear,0,2013-08-01 04:55:00